Regional Weather Roundup
Issued by NWS

Home | Current Version | Previous Version | Graphics & Text | Print | Product List | Glossary On
Versions: 1 2 3 4 5 6 7 8 9 10 11 12 13 14 15 16 17 18 19 20 21 22 23 24 25 26 27 28 29 30 31 32 33 34 35 36 37 38 39 40 41 42 43 44 45 46 47 48 49 50
000
ASUS43 KLOT 120208
RWRIL

ILLINOIS REGIONAL WEATHER ROUNDUP
NATIONAL WEATHER SERVICE CHICAGO/ROMEOVILLE IL
800 PM CST THU FEB 11 2016

NOTE: "FAIR" INDICATES FEW OR NO CLOUDS BELOW 12,000 FEET WITH NO
SIGNIFICANT WEATHER AND/OR OBSTRUCTIONS TO VISIBILITY.

* THESE STATIONS ARE NOT UNDER NWS QUALITY CONTROL. THEY ALSO MAY NOT
  REPORT WEATHER SUCH AS PRECIPITATION OR FOG.

ILZ001-002-007-009-015-016-024-120300-
NORTHWEST ILLINOIS

CITY           SKY/WX    TMP DP  RH WIND       PRES   REMARKS
MOLINE         CLOUDY    21   7  54 S3        30.29S
STERLING*      PTCLDY    21   9  58 SW5       30.26S WCI  15
SAVANNA*       CLOUDY    20   5  52 CALM      30.29F
$$

ILZ003-004-008-010-011-017-018-120300-
NORTH CENTRAL ILLINOIS

CITY           SKY/WX    TMP DP  RH WIND       PRES   REMARKS
ROCKFORD       CLOUDY    16   6  65 CALM      30.29F
FREEPORT*      CLOUDY    17   7  63 SW5       30.28F WCI  10
ROCHELLE*      PTCLDY    19   9  65 W7        30.28S WCI   9
DE KALB*       PTCLDY    17   7  65 CALM      30.27S
$$

ILZ005-006-012>014-019>023-120300-
NORTHEAST ILLINOIS

CITY           SKY/WX    TMP DP  RH WIND       PRES   REMARKS
CHICAGO-OHARE  PTCLDY    17   5  59 W6        30.27S WCI   9
CHICAGO-MIDWAY PTCLDY    19   3  49 W8        30.28F WCI   9
AURORA         CLOUDY    19   8  62 SW3       30.28F
LANSING*       CLEAR     17   5  58 W5        30.29S WCI  10
JOLIET*        PTCLDY    21   7  53 CALM      30.29F
WAUKEGAN       CLEAR     11   3  70 CALM      30.26S
DUPAGE AIRPORT CLEAR     14   3  61 CALM      30.27S
KANKAKEE*      MOCLDY    19  11  70 CALM      30.30F
WHEELING       CLEAR     18   3  52 CALM      30.28F
MORRIS*        CLOUDY    21   9  61 CALM      30.26F
ROMEOVILLE*    MOCLDY    18   6  59 SW3       30.28F
NORTHERLY ISL    N/A     21   2  43 SW7         N/A  WCI  13
$$

LMZ740>746-120300-
SOUTHERN LAKE MICHIGAN

STATION/POSITION SKY/WX   TEMP    WIND        PRES    VSBY  WAVE
                          AIR SEA DIR/SP/G                  HT/PER
                          (F)     (DEG/KT/KT) (MB)    (MI)  (FT/S)
HARRISON CRIB              21     190/  5/  6   N/A
BURNHAM HARBOR             21     270/  6/ 10   N/A
CALUMET HARBOR             21                 1024.9R
BURNS HARBOR               18     120/  3/  4 1026.1S
MICHIGAN CITY              17     120/  3/  4   N/A
$$

ILZ025>027-034>036-040-047-049-050-058-095>099-120300-
WEST-CENTRAL ILLINOIS

CITY           SKY/WX    TMP DP  RH WIND       PRES   REMARKS
QUINCY         CLOUDY    23  10  57 SE7       30.28F WCI  15
GALESBURG*     CLOUDY    23   9  54 CALM      30.28S
MACOMB*        CLOUDY    24  12  58 CALM      30.31S
JACKSONVILLE*  CLOUDY    27  15  61 S6        30.30S WCI  20
PITTSFIELD*    CLOUDY    24  13  63 SE5       30.30F WCI  18
$$

ILZ028>032-037-038-041>044-048-051>054-059>061-120300-
CENTRAL ILLINOIS

CITY           SKY/WX    TMP DP  RH WIND       PRES   REMARKS
PONTIAC        PTCLDY    23  11  61 SW3       30.30F
BLOOMINGTON    CLOUDY    21  10  62 S6        30.29F WCI  13
DECATUR        CLOUDY    24   8  50 SE6       30.30S WCI  17
PEORIA         CLOUDY    24   6  46 S3        30.30S
LACON*         CLOUDY    21   7  54 CALM      30.30S
LINCOLN*       CLOUDY    25  11  56 CALM      30.30S
SPRINGFIELD    CLOUDY    26  12  55 SE6       30.31S WCI  19
TAYLORVILLE    CLOUDY    25  12  58 SE5       30.30S WCI  19
$$

ILZ033-039-045-046-055>057-062-063-120300-
EAST-CENTRAL ILLINOIS

CITY           SKY/WX    TMP DP  RH WIND       PRES   REMARKS
CHAMPAIGN      CLOUDY    20  11  68 E5        30.29F WCI  13
RANTOUL*       PTCLDY    23  10  58 E3        30.29F
MATTOON        CLOUDY    21   9  59 SE3       30.29F
PARIS*         PTCLDY    21  11  65 CALM      30.31F
$$

ILZ079-100>102-120300-
SOUTHWEST ILLINOIS

CITY           SKY/WX    TMP DP  RH WIND       PRES   REMARKS
ALTON          MOCLDY    25  14  63 CALM      30.31S
BELLEVILLE     MOCLDY    27  12  52 E3        30.29R
CAHOKIA*       CLOUDY    28  13  53 SE3       30.32R
SPARTA*        CLOUDY    26  15  62 CALM      30.31R
$$

ILZ064>066-069>071-074>076-080>082-084>086-088>090-092>094-120300-
SOUTH-CENTRAL ILLINOIS

CITY           SKY/WX    TMP DP  RH WIND       PRES   REMARKS
CARBONDALE     MOCLDY    29  17  61 E5        30.28F WCI  24
CAIRO*         CLOUDY    33  23  67 E9        30.27F WCI  25
EFFINGHAM*     CLOUDY    25  13  62 CALM      30.32F
MARION         MOCLDY    30  14  51 CALM      30.30S
MT. VERNON     CLOUDY    28  10  47 NE7       30.30R WCI  21
CENTRALIA*     CLOUDY    27  17  65 CALM      30.30R
SALEM*         CLOUDY    28  14  57 CALM      30.30R
METROPOLIS*    MOCLDY    32  21  64 E5        30.29F WCI  27
$$

ILZ067-068-072-073-078-083-087-091-120300-
SOUTHEAST ILLINOIS

CITY           SKY/WX    TMP DP  RH WIND       PRES   REMARKS
LAWRENCEVILLE  CLOUDY    25  12  58 NE5       30.32F WCI  19
FLORA*         PTCLDY    28  12  51 NE5       30.32R WCI  22
FAIRFIELD*     CLOUDY    28  13  54 NE6       30.30S WCI  21
HARRISBURG*    CLOUDY    30  19  63 CALM      30.30F
ROBINSON*      PTCLDY    23  12  62 CALM      30.33F
CARMI*         MOCLDY    29  17  62 E5        30.30F WCI  24
$$

ABBREVIATIONS USED IN REMARKS
   TC - TEMPERATURE IN CELSIUS
  WCI - WIND CHILL INDEX
   HX - HEAT INDEX
  VSB - VISIBILITY
$$




USA.gov is the U.S. government's official web portal to all federal, state and local government web resources and services.